Welcome to the New NWS' Forecast!
Most changes are behind the scenes, but click here for differences you might notice.

Regional Weather Roundup (RWR)

Issued by National Weather Service (NWS)

                            
000
ASUS43 KMKX 201300
RWRWI 

WISCONSIN REGIONAL WEATHER ROUNDUP
NATIONAL WEATHER SERVICE MILWAUKEE/SULLIVAN WI
800 AM CDT MON AUG 20 2018

NOTE: "FAIR" INDICATES FEW OR NO CLOUDS BELOW 12,000 FEET WITH NO
SIGNIFICANT WEATHER AND/OR OBSTRUCTIONS TO VISIBILITY.

WIZ001-002-006>008-014>016-023>028-201400-
NORTHWEST WISCONSIN
  
CITY           SKY/WX    TMP DP  RH WIND       PRES   REMARKS
SUPERIOR ARPT  CLOUDY    66  64  93 NE9       30.00R                  
ASHLAND        FOG       67  67 100 CALM      30.00R VSB<1/4          
HAYWARD        FAIR      64  64 100 NE5       30.00R FOG              
SIREN          NOT AVBL                                               
CUMBERLAND     FAIR      64  61  88 E3        29.98S                  
RICE LAKE      FAIR      66  63  90 CALM      29.99R                  
CHETEK         PTSUNNY   66  63  89 E5        29.97S                  
LADYSMITH      FAIR      64  62  90 MISG      30.00F                  
EAU CLAIRE     NOT AVBL                                               
MENOMONIE      FAIR      67  64  89 N3        29.94F                  
NEW RICHMOND   PTSUNNY   67  61  80 CALM      29.96R                  
OSCEOLA        FAIR      68  64  86 CALM      29.98S                  
$$
 
WIZ003>005-009-010-017-018-201400-
NORTH CENTRAL WISCONSIN
  
CITY           SKY/WX    TMP DP  RH WIND       PRES   REMARKS
MANITOWISH WTR PTSUNNY   60  60 100 CALM      30.02S                  
ARBOR VITAE    FAIR      62  59  89 CALM      30.02F FOG              
WOODRUFF       FAIR      62  59  89 CALM      30.02F FOG              
RHINELANDER    FAIR      63  61  93 CALM      30.03S FOG              
EAGLE RIVER    PTSUNNY   61  61 100 CALM      30.03S FOG              
LAND O LAKES   PTSUNNY   60  60 100 CALM      30.05S FOG              
PHILLIPS       FAIR      61  61 100 CALM      30.01R                  
TOMAHAWK       FAIR      58  57  97 CALM      30.02S FOG              
MEDFORD        FAIR      61  59  95 NE3       29.99S FOG              
MERRILL        FAIR      60  60 100 NE3       30.00F FOG              
$$
 
WIZ029-030-035-036-043>047-201400-
CENTRAL WISCONSIN
  
CITY           SKY/WX    TMP DP  RH WIND       PRES   REMARKS
WAUSAU         FAIR      65  63  93 E7        29.98S FOG              
MOSINEE        PTSUNNY   64  64 100 E6        30.00S FOG              
MARSHFIELD     PTSUNNY   65  64  97 NE7       29.97S FOG              
STEVENS POINT  PTSUNNY   62  62 100 NE5       29.98F FOG              
WAUPACA        FAIR      66  66  99 NE3       29.98S FOG              
WAUTOMA        CLOUDY    67  64  90 NE7       29.96F                  
WISC RAPIDS    FAIR      68  62  81 E7        29.97F                  
CAMP DOUGLAS   NOT AVBL                                               
$$
 
WIZ011>013-019>022-031-037>040-048>050-201400-
NORTHEAST WISCONSIN
  
CITY           SKY/WX    TMP DP  RH WIND       PRES   REMARKS
ANTIGO         PTSUNNY   63  63 100 E3        30.02S FOG              
SHAWANO        PTSUNNY   68  66  94 CALM      30.00R                  
OCONTO         FAIR      65  63  94 CALM      30.00R                  
STURGEON BAY   FAIR      68  66  93 E3        30.00S                  
GREEN BAY      PTSUNNY   70  66  87 E6        29.98S                  
MANITOWOC      FAIR      68  65  90 CALM      29.99S                  
APPLETON       PTSUNNY   70  61  73 E6        29.97S                  
CLINTONVILLE   CLOUDY    64  62  93 NE3       29.99S FOG              
OSHKOSH        FAIR      71  67  87 E8        29.96S                  
$$
 
WIZ032>034-041-042-053>061-201400-
SOUTHWEST WISCONSIN
  
CITY           SKY/WX    TMP DP  RH WIND       PRES   REMARKS
LA CROSSE      FAIR      72  67  84 E6        29.89R                  
SPARTA         FAIR      63  62  97 SE6       29.93R                  
VIROQUA        FAIR      67  67 100 E7        29.92S                  
BOSCOBEL       FAIR      71  68  90 E5        29.88R                  
PRAIRIE DU CHI FAIR      70  65  85 E9        29.84R                  
PLATTEVILLE    FAIR      70  69  96 E13       29.87S                  
$$

WIZ056-057-062-063-064-067-068-201400-
SOUTH CENTRAL WISCONSIN
  
CITY           SKY/WX    TMP DP  RH WIND       PRES   REMARKS
REEDSBURG      FAIR      66  66 100 E5        29.92S FOG              
BARABOO/DELLS  FAIR      66  65  94 E7        29.93S FOG              
LONE ROCK      FAIR      71  69  93 E7        29.89S FOG              
MINERAL POINT  FAIR      70  70 100 E9        29.89S                  
MADISON        CLOUDY    71  68  90 E9        29.92S                  
MIDDLETON      FAIR      72  69  91 E8        29.93S                  
WATERTOWN      FAIR      70  70 100 E6        29.95R                  
MONROE         FAIR      69  66  91 E9        29.91R                  
JANESVILLE     PTSUNNY   72  70  94 E9        29.92S                  
$$
 
WIZ051-052-058>065-066-070>072-201400-
SOUTHEAST WISCONSIN
  
CITY           SKY/WX    TMP DP  RH WIND       PRES   REMARKS
MILWAUKEE      CLOUDY    75  69  81 SE10      29.95R                  
WAUKESHA       SUNNY     70  66  88 E3        29.97R                  
MILWAUKEE/TIMM SUNNY     73  64  73 CALM      29.96S                  
RACINE         FAIR      75  68  78 SE6       29.97R                  
BURLINGTON     FAIR      70  67  90 E6        29.94S                  
KENOSHA        FAIR      74  69  85 E8        29.94S                  
FOND DU LAC    PTSUNNY   71  65  81 NE5       29.96S                  
SHEBOYGAN      FAIR      71  67  87 NE5       29.97S                  
WEST BEND      FAIR      66  66 100 CALM      29.97S FOG              
JUNEAU         FAIR      69  68  94 E5        29.96S                  
$$

LSZ147-162-201400-
LAKE SUPERIOR
  
STATION/POSITION TIME  TEMP    WIND        PRES    WAVE
                       AIR SEA DIR/SP/G            HT/PER
                 (UTC) (F)     (DEG/KT/KT) (MB)    (FT/S)
W MID LAKE BUOY  1150   63 63   30/ 12/ 14 1014.7R
DEVILS ISLAND    1200   65      70/ 10/ 11 1015.5R
SAXON HARBOR     1230   66     180/  5/  8 1014.9S
$$
 
LMZ867-665-643>646-201400-
LAKE MICHIGAN
  
STATION/POSITION TIME  TEMP    WIND        PRES    WAVE
                       AIR SEA DIR/SP/G            HT/PER
                 (UTC) (F)     (DEG/KT/KT) (MB)    (FT/S)
CHAMBERS ISLAND  1240   68     130/  3/  4 1015.9R
N MID LAKE BUOY  1240   72 73  270/  4/  4 1015.4R
NORTHPORT PIER   1240   69      CALM  /  1 1015.6S
KEWAUNEE LAKESHO 1224   72     100/  7/  9 1014.5
SHEBOYGAN LAKESH 1200   73     110/ 13/ 14 1014.2R
PORT WASHINGTON  1240   76     130/  8/ 10 1015.2F
ATWATER BUOY     1207   76 75  140/ 12/ 16 1014.5    2/ 4
MILWAUKEE LAKESH 1230   75     130/ 11/ 13   N/A
S MID LAKE BUOY  1150   74 76  120/ 16/ 19 1013.7F   3/ 5
KENOSHA   LAKESH 1200   75     140/ 13/ 15 1013.5
$$

TC  - TEMPERATURE IN CELSIUS
VSB - VISIBILITY IN STATUTE MILES
WCI - WIND CHILL INDEX
HX  - HEAT INDEX